SV2TW-2 Weather Reports


Display with metric or nautical units.
time (UTC)temp
F
wind
direction
speed
MPH
gust
MPH
rain 1hr
in
rain 24hr
in
rain mn
in
humidity
%
barometer
mb
20260507113204 62 270 2.0 0.0 0.00 0.00 0.00 76 1012.9
20260507112704 63 270 2.0 0.0 0.00 0.00 0.00 75 1012.8
20260507112204 63 270 1.0 0.0 0.00 0.00 0.00 75 1012.8
20260507111704 63 315 1.0 0.0 0.00 0.00 0.00 74 1012.5
20260507111204 64 315 1.0 0.0 0.00 0.00 0.00 70 1012.8
20260507110204 65 270 3.0 0.0 0.00 0.00 0.00 65 1012.5
20260507105704 65 180 2.0 0.0 0.00 0.00 0.00 65 1012.9
20260507105204 65 315 3.0 0.0 0.00 0.00 0.00 67 1012.6
20260507104704 65 0 3.0 0.0 0.00 0.00 0.00 68 1012.4
20260507104204 65 315 3.0 0.0 0.00 0.00 0.00 67 1012.8
20260507103704 66 315 2.0 0.0 0.00 0.00 0.00 68 1012.5
20260507103204 65 315 3.0 0.0 0.00 0.00 0.00 67 1012.5
20260507102703 65 315 4.0 0.0 0.00 0.00 0.00 65 1012.5
20260507102204 65 315 6.0 0.0 0.00 0.00 0.00 64 1012.5
20260507101704 65 270 2.0 0.0 0.00 0.00 0.00 65 1012.4
20260507101204 65 315 5.0 0.0 0.00 0.00 0.00 65 1012.4
20260507100704 66 0 4.0 0.0 0.00 0.00 0.00 65 1012.5
20260507095704 66 315 3.0 0.0 0.00 0.00 0.00 61 1012.2
20260507094704 67 270 2.0 0.0 0.00 0.00 0.00 59 1012.1
20260507094204 67 315 4.0 0.0 0.00 0.00 0.00 58 1012.2
20260507093204 67 270 2.0 0.0 0.00 0.00 0.00 60 1011.9
20260507092703 67 315 1.0 0.0 0.00 0.00 0.00 60 1011.9
20260507091704 68 225 2.0 0.0 0.00 0.00 0.00 58 1011.9
20260507091204 68 135 2.0 0.0 0.00 0.00 0.00 55 1011.7
20260507090703 68 135 2.0 0.0 0.00 0.00 0.00 56 1011.7
20260507090204 68 135 2.0 0.0 0.00 0.00 0.00 55 1011.7
20260507085704 67 135 2.0 0.0 0.00 0.00 0.00 55 1011.6
20260507085204 67 45 2.0 0.0 0.00 0.00 0.00 55 1011.6
20260507084204 67 90 1.0 0.0 0.00 0.00 0.00 54 1011.5
20260507083704 67 45 4.0 0.0 0.00 0.00 0.00 53 1011.4
20260507083204 68 45 3.0 0.0 0.00 0.00 0.00 52 1011.5
20260507082204 70 0 1.0 0.0 0.00 0.00 0.00 53 1011.4
20260507081704 69 135 2.0 0.0 0.00 0.00 0.00 52 1011.4
20260507081204 69 135 2.0 0.0 0.00 0.00 0.00 53 1011.2
20260507080704 68 45 1.0 0.0 0.00 0.00 0.00 53 1011.3
20260507080204 67 90 2.0 0.0 0.00 0.00 0.00 52 1011.4
20260507075704 67 0 1.0 0.0 0.00 0.00 0.00 51 1011.0
20260507075204 67 45 2.0 0.0 0.00 0.00 0.00 51 1011.2
20260507074704 68 45 4.0 0.0 0.00 0.00 0.00 50 1011.2
20260507074204 69 90 0.0 0.0 0.00 0.00 0.00 52 1011.1
20260507073704 69 45 3.0 0.0 0.00 0.00 0.00 52 1011.0
20260507072703 68 135 2.0 0.0 0.00 0.00 0.00 53 1010.9
20260507072204 68 45 2.0 0.0 0.00 0.00 0.00 51 1011.1
20260507071704 68 45 1.0 0.0 0.00 0.00 0.00 50 1011.0
20260507071205 68 45 2.0 0.0 0.00 0.00 0.00 51 1011.2
20260507070704 68 45 2.0 0.0 0.00 0.00 0.00 50 1011.1
20260507070204 68 45 3.0 0.0 0.00 0.00 0.00 50 1011.2
20260507065705 68 0 2.0 0.0 0.00 0.00 0.00 49 1011.2
20260507065203 69 135 2.0 0.0 0.00 0.00 0.00 50 1011.2
20260507064704 69 45 2.0 0.0 0.00 0.00 0.00 50 1011.2
20260507064204 69 45 2.0 0.0 0.00 0.00 0.00 49 1011.1
20260507063204 71 180 2.0 0.0 0.00 0.00 0.00 46 1011.2
20260507062704 70 45 2.0 0.0 0.00 0.00 0.00 47 1011.3
20260507062205 69 45 2.0 0.0 0.00 0.00 0.00 46 1011.3
20260507061704 69 45 2.0 0.0 0.00 0.00 0.00 43 1011.1
20260507055706 72 90 1.0 0.0 0.00 0.00 0.00 46 1011.0
20260507055204 71 158 1.0 0.0 0.00 0.00 0.00 46 1011.1
20260507054704 71 135 2.0 0.0 0.00 0.00 0.00 45 1011.1
20260507054204 71 135 0.0 0.0 0.00 0.00 0.00 47 1011.0
20260507053704 69 225 0.0 0.0 0.00 0.00 0.00 51 1011.0
20260507053204 68 90 1.0 0.0 0.00 0.00 0.00 52 1011.1
20260507052703 67 90 1.0 0.0 0.00 0.00 0.00 52 1011.0
20260507052205 67 45 2.0 0.0 0.00 0.00 0.00 53 1011.0
20260507051704 67 135 0.0 0.0 0.00 0.00 0.00 53 1011.1
20260507051204 66 135 0.0 0.0 0.00 0.00 0.00 54 1011.1
20260507050704 65 135 0.0 0.0 0.00 0.00 0.00 55 1010.9
20260507050204 64 180 1.0 0.0 0.00 0.00 0.00 58 1011.0
20260507045704 61 180 1.0 0.0 0.00 0.00 0.00 64 1011.0
20260507045203 61 180 2.0 0.0 0.00 0.00 0.00 65 1011.1
20260507044704 59 180 0.0 0.0 0.00 0.00 0.00 70 1010.9
20260507044204 57 180 0.0 0.0 0.00 0.00 0.00 70 1010.8
20260507043704 56 225 0.0 0.0 0.00 0.00 0.00 71 1010.7
20260507043204 55 225 0.0 0.0 0.00 0.00 0.00 70 1010.7
20260507042704 54 225 0.0 0.0 0.00 0.00 0.00 72 1010.7
20260507042205 54 225 0.0 0.0 0.00 0.00 0.00 72 1010.6
20260507041704 54 225 0.0 0.0 0.00 0.00 0.00 73 1010.6
20260507041204 54 225 1.0 0.0 0.00 0.00 0.00 73 1010.4
20260507040704 54 225 1.0 0.0 0.00 0.00 0.00 73 1010.6
20260507040204 54 225 1.0 0.0 0.00 0.00 0.00 75 1010.4
20260507035704 54 225 1.0 0.0 0.00 0.00 0.00 75 1010.4
20260507035204 53 225 1.0 0.0 0.00 0.00 0.00 75 1010.3
20260507034704 52 225 2.0 0.0 0.00 0.00 0.00 75 1010.6
20260507034204 52 225 1.0 0.0 0.00 0.00 0.00 75 1010.3
20260507033704 52 225 1.0 0.0 0.00 0.00 0.00 75 1010.2
20260507032704 51 180 0.0 0.0 0.00 0.00 0.00 75 1010.3
20260507032203 51 180 2.0 0.0 0.00 0.00 0.00 74 1010.2
20260507031704 51 270 1.0 0.0 0.00 0.00 0.00 73 1010.2
20260507031204 51 270 1.0 0.0 0.00 0.00 0.00 72 1010.1
20260507030704 52 225 1.0 0.0 0.00 0.00 0.00 72 1010.0
20260507030204 52 225 1.0 0.0 0.00 0.00 0.00 72 1010.1
20260507025704 53 225 1.0 0.0 0.00 0.00 0.00 72 1010.1
20260507025204 53 225 1.0 0.0 0.00 0.00 0.00 72 1009.9
20260507024704 52 225 2.0 0.0 0.00 0.00 0.00 73 1010.0
20260507024204 51 180 2.0 0.0 0.00 0.00 0.00 73 1010.2
20260507023704 51 180 1.0 0.0 0.00 0.00 0.00 73 1010.0
20260507023204 51 225 1.0 0.0 0.00 0.00 0.00 73 1010.0
20260507022704 51 270 2.0 0.0 0.00 0.00 0.00 72 1010.0
20260507022204 51 270 2.0 0.0 0.00 0.00 0.00 72 1009.9
20260507021704 52 225 1.0 0.0 0.00 0.00 0.00 72 1009.9
20260507021204 52 225 2.0 0.0 0.00 0.00 0.00 72 1009.9
20260507020704 52 270 0.0 0.0 0.00 0.00 0.00 72 1009.7
20260507020204 52 270 0.0 0.0 0.00 0.00 0.00 72 1009.8
20260507015704 52 225 1.0 0.0 0.00 0.00 0.00 72 1009.8
20260507015204 51 225 0.0 0.0 0.00 0.00 0.00 73 1009.9
20260507013704 51 270 1.0 0.0 0.00 0.00 0.00 71 1009.7
20260507013204 51 270 1.0 0.0 0.00 0.00 0.00 71 1009.8
20260507011704 51 225 2.0 0.0 0.00 0.00 0.00 70 1009.6
20260507011204 52 270 2.0 0.0 0.00 0.00 0.00 70 1009.6
20260507010704 52 180 1.0 0.0 0.00 0.00 0.00 70 1009.7
20260507010203 52 225 2.0 0.0 0.00 0.00 0.00 70 1009.5
20260507005704 52 270 2.0 0.0 0.00 0.00 0.00 70 1009.5
20260507005204 52 270 0.0 0.0 0.00 0.00 0.00 70 1009.6
20260507004704 51 270 0.0 0.0 0.00 0.00 0.00 70 1009.6
20260507004203 52 270 0.0 0.0 0.00 0.00 0.00 69 1009.6
20260507003704 52 225 0.0 0.0 0.00 0.00 0.00 67 1009.8
20260507002704 53 225 0.0 0.0 0.00 0.00 0.00 65 1009.6
20260507002204 53 180 0.0 0.0 0.00 0.00 0.00 65 1009.7
20260507001704 53 225 2.0 0.0 0.00 0.00 0.00 64 1009.7
20260507001204 53 225 1.0 0.0 0.00 0.00 0.00 63 1009.7
20260507000704 55 270 1.0 0.0 0.00 0.00 0.00 56 1009.9
20260507000205 55 270 1.0 0.0 0.00 0.00 0.00 56 1009.9
20260506235704 55 270 1.0 0.0 0.00 0.00 0.00 55 1010.0
20260506235204 55 180 1.0 0.0 0.00 0.00 0.00 55 1009.9
20260506234705 55 180 1.0 0.0 0.00 0.00 0.00 55 1010.0
20260506234204 55 180 2.0 0.0 0.00 0.00 0.00 55 1009.8
20260506233703 55 135 2.0 0.0 0.00 0.00 0.00 56 1009.9
20260506233204 55 135 2.0 0.0 0.00 0.00 0.00 56 1009.8
20260506232705 54 135 0.0 0.0 0.00 0.00 0.00 61 1009.9
20260506232204 54 225 0.0 0.0 0.00 0.00 0.00 61 1009.8
20260506231704 54 225 0.0 0.0 0.00 0.00 0.00 61 1009.9
20260506231204 54 225 0.0 0.0 0.00 0.00 0.00 61 1009.9
20260506230704 55 225 0.0 0.0 0.00 0.00 0.00 56 1010.0
20260506230204 55 180 0.0 0.0 0.00 0.00 0.00 54 1010.1
20260506225704 56 225 0.0 0.0 0.00 0.00 0.00 54 1010.1
20260506225204 56 225 0.0 0.0 0.00 0.00 0.00 52 1010.2
20260506224703 56 225 0.0 0.0 0.00 0.00 0.00 52 1010.0
20260506224204 56 315 0.0 0.0 0.00 0.00 0.00 52 1010.1
20260506223204 56 0 0.0 0.0 0.00 0.00 0.00 51 1010.1
20260506222704 56 225 0.0 0.0 0.00 0.00 0.00 51 1010.2
20260506222204 57 225 0.0 0.0 0.00 0.00 0.00 50 1010.2
20260506221704 58 225 0.0 0.0 0.00 0.00 0.00 48 1010.1
20260506221203 59 270 0.0 0.0 0.00 0.00 0.00 47 1010.2
20260506220704 59 135 2.0 0.0 0.00 0.00 0.00 45 1010.1
20260506220204 59 225 2.0 0.0 0.00 0.00 0.00 45 1010.2
20260506215704 60 0 0.0 0.0 0.00 0.00 0.00 45 1010.4
20260506215204 59 225 2.0 0.0 0.00 0.00 0.00 46 1010.2
20260506214204 60 270 0.0 0.0 0.00 0.00 0.00 44 1010.1
20260506213704 61 225 0.0 0.0 0.00 0.00 0.00 42 1010.2
20260506213204 62 225 0.0 0.0 0.00 0.00 0.00 41 1010.1
20260506212204 63 315 0.0 0.0 0.00 0.00 0.00 40 1010.1
20260506211704 63 45 2.0 0.0 0.00 0.00 0.00 40 1010.3
20260506210704 62 180 2.0 0.0 0.00 0.00 0.00 42 1010.3
20260506210203 60 135 2.0 0.0 0.00 0.00 0.00 46 1010.1
20260506205704 58 225 0.0 0.0 0.00 0.00 0.00 50 1010.1
20260506204704 57 180 1.0 0.0 0.00 0.00 0.00 53 1010.1
20260506204204 56 270 2.0 0.0 0.00 0.00 0.00 54 1010.1
20260506203703 56 225 2.0 0.0 0.00 0.00 0.00 53 1010.2
20260506203204 57 270 2.0 0.0 0.00 0.00 0.00 52 1010.1
20260506202704 57 225 1.0 0.0 0.00 0.00 0.00 51 1010.2
20260506202203 57 225 1.0 0.0 0.00 0.00 0.00 51 1010.1
20260506201703 58 225 2.0 0.0 0.00 0.00 0.00 51 1010.1
20260506201204 58 225 1.0 0.0 0.00 0.00 0.00 49 1010.0
20260506200704 59 270 1.0 0.0 0.00 0.00 0.00 48 1010.0
20260506200204 58 225 2.0 0.0 0.00 0.00 0.00 48 1009.9
20260506195704 59 180 2.0 0.0 0.00 0.00 0.00 46 1009.9
20260506195204 59 225 0.0 0.0 0.00 0.00 0.00 44 1009.8
20260506194704 60 135 0.0 0.0 0.00 0.00 0.00 43 1009.9
20260506193704 61 135 2.0 0.0 0.00 0.00 0.00 42 1009.9
20260506193204 60 180 2.0 0.0 0.00 0.00 0.00 42 1009.7
20260506192704 61 0 0.0 0.0 0.00 0.00 0.00 41 1009.7
20260506192204 61 270 0.0 0.0 0.00 0.00 0.00 40 1009.8
20260506191704 61 45 0.0 0.0 0.00 0.00 0.00 40 1009.7
20260506191204 61 180 0.0 0.0 0.00 0.00 0.00 40 1009.7
20260506190704 61 315 0.0 0.0 0.00 0.00 0.00 40 1009.7
20260506190204 61 270 0.0 0.0 0.00 0.00 0.00 40 1009.8
20260506185704 62 338 0.0 0.0 0.00 0.00 0.00 40 1009.8
20260506185204 62 45 2.0 0.0 0.00 0.00 0.00 40 1009.5
20260506184704 63 270 1.0 0.0 0.00 0.00 0.00 37 1009.6
20260506184204 63 45 2.0 0.0 0.00 0.00 0.00 36 1009.7
20260506183203 64 90 1.0 0.0 0.00 0.00 0.00 32 1009.5
20260506182204 64 225 3.0 0.0 0.00 0.00 0.00 31 1009.3
20260506181704 65 45 2.0 0.0 0.00 0.00 0.00 31 1009.3
20260506181204 65 135 5.0 0.0 0.00 0.00 0.00 30 1009.3
20260506180704 66 180 3.0 0.0 0.00 0.00 0.00 28 1009.1
20260506180204 66 180 3.0 0.0 0.00 0.00 0.00 28 1009.1
20260506175704 66 180 4.0 0.0 0.00 0.00 0.00 27 1009.2
20260506175203 66 180 7.0 0.0 0.00 0.00 0.00 27 1009.0
20260506174704 66 180 6.0 0.0 0.00 0.00 0.00 27 1009.1
20260506174203 66 180 8.0 0.0 0.00 0.00 0.00 27 1009.1
20260506173703 66 180 1.0 0.0 0.00 0.00 0.00 28 1009.0
20260506173204 66 180 4.0 0.0 0.00 0.00 0.00 27 1009.0
20260506172704 66 270 6.0 0.0 0.00 0.00 0.00 30 1008.8
20260506171704 67 180 4.0 0.0 0.00 0.00 0.00 28 1009.1
20260506171204 67 225 9.0 0.0 0.00 0.00 0.00 27 1008.7
20260506170704 67 135 4.0 0.0 0.00 0.00 0.00 26 1008.5
20260506165704 67 135 7.0 0.0 0.00 0.00 0.00 27 1008.4
20260506165204 68 135 4.0 0.0 0.00 0.00 0.00 27 1008.4
20260506164704 68 180 7.0 0.0 0.00 0.00 0.00 28 1008.2
20260506164204 68 135 4.0 0.0 0.00 0.00 0.00 30 1008.4
20260506163703 69 90 3.0 0.0 0.00 0.00 0.00 30 1008.1
20260506163204 69 225 5.0 0.0 0.00 0.00 0.00 30 1008.2
20260506162704 70 135 6.0 0.0 0.00 0.00 0.00 30 1008.4
20260506162204 71 135 5.0 0.0 0.00 0.00 0.00 30 1008.4
20260506161704 71 90 8.0 0.0 0.00 0.00 0.00 28 1008.1
20260506160204 72 135 4.0 0.0 0.00 0.00 0.00 30 1008.1
20260506155704 72 180 5.0 0.0 0.00 0.00 0.00 28 1008.0
20260506155204 72 180 8.0 0.0 0.00 0.00 0.00 27 1008.1
20260506154204 73 135 5.0 0.0 0.00 0.00 0.00 24 1008.2
20260506153704 73 180 6.0 0.0 0.00 0.00 0.00 25 1008.1
20260506153204 73 135 6.0 0.0 0.00 0.00 0.00 23 1008.2
20260506152704 74 90 7.0 0.0 0.00 0.00 0.00 24 1008.4
20260506152205 74 90 7.0 0.0 0.00 0.00 0.00 25 1008.2
20260506151704 73 135 6.0 0.0 0.00 0.00 0.00 23 1008.4
20260506150704 74 180 7.0 0.0 0.00 0.00 0.00 23 1008.2
20260506145704 74 180 5.0 0.0 0.00 0.00 0.00 25 1008.4
20260506145204 73 135 8.0 0.0 0.00 0.00 0.00 23 1008.5
20260506144204 74 135 8.0 0.0 0.00 0.00 0.00 23 1008.4
20260506143704 74 180 9.0 0.0 0.00 0.00 0.00 23 1008.4
20260506143204 74 180 8.0 0.0 0.00 0.00 0.00 23 1008.5
20260506142704 74 135 4.0 0.0 0.00 0.00 0.00 23 1008.5
20260506142204 73 315 4.0 0.0 0.00 0.00 0.00 23 1008.4
20260506141704 74 180 7.0 0.0 0.00 0.00 0.00 23 1008.4
20260506140703 74 135 5.0 0.0 0.00 0.00 0.00 24 1008.2
20260506140204 74 225 5.0 0.0 0.00 0.00 0.00 23 1008.2
20260506135704 74 135 4.0 0.0 0.00 0.00 0.00 24 1008.5
20260506135204 74 225 5.0 0.0 0.00 0.00 0.00 23 1008.5
20260506134704 75 90 4.0 0.0 0.00 0.00 0.00 24 1008.5
20260506134204 75 90 4.0 0.0 0.00 0.00 0.00 25 1008.5
20260506133704 75 180 4.0 0.0 0.00 0.00 0.00 25 1008.5
20260506133205 74 135 7.0 0.0 0.00 0.00 0.00 24 1008.5
20260506131204 75 180 3.0 0.0 0.00 0.00 0.00 24 1008.8
20260506130704 75 180 6.0 0.0 0.00 0.00 0.00 24 1008.8
20260506130204 75 180 7.0 0.0 0.00 0.00 0.00 23 1008.7
20260506125704 74 135 5.0 0.0 0.00 0.00 0.00 23 1008.8
20260506124703 74 203 6.0 0.0 0.00 0.00 0.00 23 1009.0
20260506124204 75 180 8.0 0.0 0.00 0.00 0.00 25 1008.8
20260506123704 74 270 3.0 0.0 0.00 0.00 0.00 26 1008.8
20260506122704 74 180 7.0 0.0 0.00 0.00 0.00 26 1009.1
20260506122205 75 180 6.0 0.0 0.00 0.00 0.00 27 1009.0
20260506121706 75 135 4.0 0.0 0.00 0.00 0.00 27 1009.1
20260506121204 75 180 6.0 0.0 0.00 0.00 0.00 28 1009.1
20260506120703 75 180 6.0 0.0 0.00 0.00 0.00 27 1009.0
20260506120204 75 315 4.0 0.0 0.00 0.00 0.00 30 1009.1
20260506115704 75 180 4.0 0.0 0.00 0.00 0.00 30 1009.0
20260506115203 74 225 6.0 0.0 0.00 0.00 0.00 30 1009.1
20260506114704 74 225 8.0 0.0 0.00 0.00 0.00 30 1009.1
20260506114203 74 225 5.0 0.0 0.00 0.00 0.00 30 1009.2